This is the latest recevied weather packets stored in our database for station/object N5CSU. If no packets are shown the sender has not sent any weather packets the latest 10 day(s).
| Time | Temp. | Humidity | Pressure | Rain* | Wind** | Luminosity | Snow |
|---|---|---|---|---|---|---|---|
| 1787934222 | 34.44° C | 53% | 1018.5 hPa | 0 mm | - | 258 W/m² | - |
| 1787933922 | 34.44° C | 53% | 1018.4 hPa | 0 mm | - | 440 W/m² | - |
| 1787933621 | 35° C | 52% | 1018.5 hPa | 0 mm | - | 427 W/m² | - |
| 1787933316 | 35.56° C | 52% | 1018.6 hPa | 0 mm | - | 419 W/m² | - |
| 1787933016 | 34.44° C | 56% | 1018.4 hPa | 0 mm | - | 412 W/m² | - |
| 1787932714 | 33.89° C | 57% | 1018.5 hPa | 0 mm | - | 400 W/m² | - |
| 1787932408 | 33.33° C | 58% | 1018.6 hPa | 0 mm | - | 382 W/m² | - |
| 1787932104 | 33.33° C | 60% | 1018.6 hPa | 0 mm | - | 69 W/m² | - |
| 1787931802 | 33.33° C | 60% | 1018.6 hPa | 0 mm | - | 22 W/m² | - |
| 1787931501 | 32.78° C | 61% | 1018.6 hPa | 0 mm | - | 21 W/m² | - |
| 1787931192 | 32.78° C | 62% | 1018.2 hPa | 0 mm | - | 21 W/m² | - |
| 1787930891 | 32.22° C | 63% | 1018.3 hPa | 0 mm | - | 20 W/m² | - |
| 1787930590 | 32.22° C | 63% | 1018.3 hPa | 0 mm | - | 20 W/m² | - |
| 1787930286 | 32.22° C | 63% | 1018.4 hPa | 0 mm | - | 19 W/m² | - |
| 1787929980 | 32.22° C | 63% | 1018.3 hPa | 0 mm | - | 19 W/m² | - |
| 1787929679 | 32.22° C | 63% | 1018.3 hPa | 0 mm | - | 19 W/m² | - |
| 1787929374 | 31.67° C | 65% | 1018.2 hPa | 0 mm | - | 18 W/m² | - |
| 1787929071 | 31.11° C | 65% | 1018.2 hPa | 0 mm | - | 18 W/m² | - |
| 1787928767 | 31.11° C | 66% | 1018.1 hPa | 0 mm | - | 17 W/m² | - |
| 1787928466 | 30.56° C | 68% | 1018.3 hPa | 0 mm | - | 17 W/m² | - |
| 1787928164 | 30.56° C | 67% | 1018.4 hPa | 0 mm | - | 17 W/m² | - |
| 1787927858 | 30° C | 68% | 1018.4 hPa | 0 mm | - | 16 W/m² | - |
| 1787927553 | 30° C | 68% | 1018.4 hPa | 0 mm | - | 16 W/m² | - |
| 1787927248 | 30° C | 69% | 1018.3 hPa | 0 mm | - | 15 W/m² | - |
| 1787926944 | 29.44° C | 70% | 1018.2 hPa | 0 mm | - | 15 W/m² | - |
* Rain latest hour (hover to see other rain measurements)
** Current wind speed in m/s (hover to see current wind gust speed)